• In Moldova, Republic
  • List of Countries
  • For 7 days
  • Water Temperature
  • Satellite Maps
  • Weather Map
  • Weather Widgets
  • user-avatar
    Login

    Hourly Weather Shkoder

    Today, 26 February, Sunday

    Time Temperature Precipitation Wind Pressure Humidity
    00:00 +5°C° 0 mm 3 mps 743 mmHg 89%
    01:00 +5°C° 0 mm 3 mps 743 mmHg 90%
    02:00 +4°C° 0 mm 3 mps 743 mmHg 90%
    03:00 +4°C° 0 mm 3 mps 743 mmHg 90%
    04:00 +4°C° 0 mm 3 mps 742 mmHg 90%
    05:00 +4°C° 0 mm 3 mps 742 mmHg 90%
    06:00 +4°C° 0 mm 3 mps 742 mmHg 89%
    07:00 +5°C° 0 mm 3 mps 742 mmHg 89%
    08:00 +8°C° 0 mm 2 mps 742 mmHg 86%
    09:00 +10°C° 0 mm 2 mps 742 mmHg 83%
    10:00 +13°C° 0 mm 2 mps 742 mmHg 80%
    11:00 +14°C° 0 mm 1 mps 742 mmHg 76%
    12:00 +15°C° 0 mm 1 mps 742 mmHg 73%
    13:00 +16°C° 0 mm 1 mps 742 mmHg 69%
    14:00 +16°C° 0 mm 1 mps 741 mmHg 72%
    15:00 +16°C° 0 mm 1 mps 741 mmHg 74%
    16:00 +15°C° 0 mm 1 mps 741 mmHg 77%
    17:00 +13°C° 0 mm 1 mps 741 mmHg 80%
    18:00 +12°C° 0 mm 1 mps 741 mmHg 83%
    19:00 +10°C° 0 mm 1 mps 741 mmHg 86%
    20:00 +9°C° 0 mm 1 mps 741 mmHg 86%
    21:00 +9°C° 0 mm 1 mps 742 mmHg 86%
    22:00 +9°C° 0 mm 1 mps 742 mmHg 86%
    23:00 +9°C° 0 mm 1 mps 742 mmHg 86%

    Tomorrow, 27 February, Monday

    Time Temperature Precipitation Wind Pressure Humidity
    00:00 +9°C° 0 mm 1 mps 742 mmHg 85%
    01:00 +9°C° 0 mm 1 mps 741 mmHg 85%
    02:00 +8°C° 0 mm 1 mps 741 mmHg 85%
    03:00 +8°C° 0 mm 1 mps 741 mmHg 86%
    04:00 +8°C° 0 mm 1 mps 740 mmHg 86%
    05:00 +8°C° 0 mm 1 mps 740 mmHg 86%
    06:00 +9°C° 0 mm 1 mps 740 mmHg 86%
    07:00 +9°C° 0 mm 1 mps 740 mmHg 86%
    08:00 +11°C° 0 mm 1 mps 741 mmHg 82%
    09:00 +13°C° 0 mm 1 mps 741 mmHg 77%
    10:00 +14°C° 0 mm 0 mps 741 mmHg 73%
    11:00 +16°C° 0 mm 1 mps 740 mmHg 71%
    12:00 +16°C° 0 mm 1 mps 740 mmHg 70%
    13:00 +18°C° 0 mm 1 mps 740 mmHg 68%
    14:00 +18°C° 0 mm 1 mps 740 mmHg 71%
    15:00 +16°C° 0 mm 1 mps 739 mmHg 75%
    16:00 +16°C° 0 mm 1 mps 739 mmHg 78%
    17:00 +14°C° 0 mm 1 mps 739 mmHg 82%
    18:00 +12°C° 0 mm 1 mps 739 mmHg 86%
    19:00 +11°C° 0 mm 1 mps 740 mmHg 90%
    20:00 +10°C° 0 mm 1 mps 740 mmHg 90%
    21:00 +10°C° 0 mm 1 mps 740 mmHg 89%
    22:00 +9°C° 0 mm 1 mps 740 mmHg 89%
    23:00 +9°C° 0 mm 1 mps 740 mmHg 89%

    Day after tomorrow, 28 February, Tuesday

    Time Temperature Precipitation Wind Pressure Humidity
    00:00 +9°C° 0 mm 1 mps 740 mmHg 89%
    01:00 +9°C° 0 mm 1 mps 740 mmHg 88%
    02:00 +9°C° 0 mm 1 mps 739 mmHg 89%
    03:00 +9°C° 0 mm 1 mps 739 mmHg 90%
    04:00 +8°C° 0 mm 1 mps 739 mmHg 90%
    05:00 +9°C° 0 mm 1 mps 739 mmHg 90%
    06:00 +8°C° 0 mm 2 mps 739 mmHg 90%
    07:00 +8°C° 0 mm 2 mps 739 mmHg 90%
    08:00 +10°C° 0 mm 2 mps 739 mmHg 85%
    09:00 +13°C° 0 mm 2 mps 739 mmHg 80%
    10:00 +15°C° 0 mm 2 mps 739 mmHg 75%
    11:00 +15°C° 0 mm 2 mps 739 mmHg 74%
    12:00 +14°C° 0 mm 3 mps 738 mmHg 73%
    13:00 +16°C° 0 mm 3 mps 738 mmHg 72%
    14:00 +14°C° 0 mm 3 mps 738 mmHg 75%
    15:00 +14°C° 0 mm 3 mps 737 mmHg 78%
    16:00 +14°C° 0 mm 3 mps 737 mmHg 81%
    17:00 +13°C° 0.1 mm 3 mps 737 mmHg 85%
    18:00 +12°C° 0.1 mm 3 mps 737 mmHg 90%
    19:00 +11°C° 0.1 mm 3 mps 737 mmHg 94%
    20:00 +11°C° 0.2 mm 3 mps 737 mmHg 95%
    21:00 +11°C° 0.2 mm 3 mps 737 mmHg 95%
    22:00 +11°C° 0.2 mm 4 mps 737 mmHg 96%
    23:00 +11°C° 0.4 mm 4 mps 737 mmHg 95%

    1 March, Wednesday

    Time Temperature Precipitation Wind Pressure Humidity
    00:00 +11°C° 0.4 mm 4 mps 737 mmHg 95%
    01:00 +11°C° 0.4 mm 4 mps 737 mmHg 94%
    02:00 +11°C° 0.6 mm 4 mps 736 mmHg 94%
    03:00 +11°C° 0.6 mm 4 mps 736 mmHg 93%
    04:00 +11°C° 0.6 mm 4 mps 736 mmHg 93%
    05:00 +11°C° 0.6 mm 4 mps 736 mmHg 93%
    06:00 +11°C° 0.6 mm 4 mps 736 mmHg 93%
    07:00 +10°C° 0.6 mm 4 mps 736 mmHg 94%
    08:00 +10°C° 0.7 mm 5 mps 735 mmHg 92%
    09:00 +10°C° 0.7 mm 5 mps 735 mmHg 91%
    10:00 +12°C° 0.7 mm 5 mps 735 mmHg 90%
    11:00 +12°C° 1.8 mm 5 mps 734 mmHg 90%
    12:00 +10°C° 1.8 mm 5 mps 734 mmHg 91%
    13:00 +10°C° 1.8 mm 5 mps 733 mmHg 92%
    14:00 +11°C° 2.5 mm 4 mps 734 mmHg 92%
    15:00 +10°C° 2.5 mm 4 mps 734 mmHg 92%
    16:00 +10°C° 2.5 mm 3 mps 734 mmHg 93%
    17:00 +9°C° 0.1 mm 3 mps 735 mmHg 92%
    18:00 +8°C° 0.1 mm 3 mps 736 mmHg 91%
    19:00 +7°C° 0.1 mm 3 mps 737 mmHg 90%
    20:00 +7°C° 0 mm 2 mps 738 mmHg 90%
    21:00 +6°C° 0 mm 2 mps 738 mmHg 90%
    22:00 +6°C° 0 mm 2 mps 739 mmHg 90%
    23:00 +5°C° 0 mm 2 mps 739 mmHg 89%

    2 March, Thursday

    Time Temperature Precipitation Wind Pressure Humidity
    00:00 +5°C° 0 mm 2 mps 740 mmHg 88%
    01:00 +5°C° 0 mm 2 mps 740 mmHg 88%
    02:00 +4°C° 0 mm 2 mps 740 mmHg 85%
    03:00 +4°C° 0 mm 2 mps 740 mmHg 82%
    04:00 +4°C° 0 mm 2 mps 740 mmHg 79%
    05:00 +4°C° 0 mm 2 mps 740 mmHg 75%
    06:00 +4°C° 0 mm 2 mps 740 mmHg 72%
    07:00 +4°C° 0 mm 2 mps 741 mmHg 69%
    08:00 +8°C° 0 mm 1 mps 741 mmHg 63%
    09:00 +10°C° 0 mm 1 mps 741 mmHg 57%
    10:00 +12°C° 0 mm 1 mps 741 mmHg 52%
    11:00 +12°C° 0 mm 1 mps 741 mmHg 52%
    12:00 +13°C° 0 mm 1 mps 741 mmHg 52%
    13:00 +14°C° 0 mm 1 mps 740 mmHg 52%
    14:00 +13°C° 0 mm 1 mps 740 mmHg 56%
    15:00 +13°C° 0 mm 1 mps 740 mmHg 60%
    16:00 +13°C° 0 mm 1 mps 740 mmHg 65%
    17:00 +11°C° 0 mm 1 mps 740 mmHg 70%
    18:00 +9°C° 0 mm 1 mps 741 mmHg 76%
    19:00 +6°C° 0 mm 0 mps 741 mmHg 81%
    20:00 +6°C° 0 mm 0 mps 741 mmHg 80%
    21:00 +6°C° 0 mm 0 mps 741 mmHg 79%
    22:00 +6°C° 0 mm 0 mps 741 mmHg 78%
    23:00 +5°C° 0 mm 0 mps 741 mmHg 77%

    3 March, Friday

    Time Temperature Precipitation Wind Pressure Humidity
    00:00 +5°C° 0 mm 0 mps 741 mmHg 77%
    01:00 +5°C° 0 mm 0 mps 741 mmHg 76%
    02:00 +6°C° 0 mm 1 mps 741 mmHg 74%
    03:00 +6°C° 0 mm 1 mps 741 mmHg 73%
    04:00 +6°C° 0 mm 1 mps 741 mmHg 72%
    05:00 +7°C° 0 mm 1 mps 741 mmHg 71%
    06:00 +7°C° 0 mm 1 mps 742 mmHg 71%
    07:00 +7°C° 0 mm 1 mps 742 mmHg 70%
    08:00 +10°C° 0 mm 1 mps 742 mmHg 65%
    09:00 +12°C° 0 mm 1 mps 742 mmHg 60%
    10:00 +14°C° 0 mm 1 mps 742 mmHg 54%
    11:00 +15°C° 0 mm 1 mps 742 mmHg 53%
    12:00 +16°C° 0 mm 1 mps 742 mmHg 51%
    13:00 +18°C° 0 mm 1 mps 741 mmHg 49%
    14:00 +16°C° 0 mm 1 mps 741 mmHg 55%
    15:00 +16°C° 0 mm 1 mps 741 mmHg 60%
    16:00 +15°C° 0 mm 1 mps 741 mmHg 65%
    17:00 +13°C° 0 mm 1 mps 741 mmHg 71%
    18:00 +11°C° 0 mm 1 mps 741 mmHg 76%
    19:00 +9°C° 0 mm 1 mps 742 mmHg 82%
    20:00 +9°C° 0 mm 1 mps 742 mmHg 82%
    21:00 +8°C° 0 mm 1 mps 742 mmHg 82%
    22:00 +7°C° 0 mm 2 mps 742 mmHg 83%
    23:00 +7°C° 0 mm 2 mps 742 mmHg 81%
    Show more